TimeEDT,TemperatureF,Dew PointF,Humidity,Sea Level PressureIn,VisibilityMPH,Wind Direction,Wind SpeedMPH,Gust SpeedMPH,PrecipitationIn,Events,Conditions,WindDirDegrees,DateUTC
12:52 AM,70.0,66.0,87,29.97,10.0,Calm,Calm,-,N/A,,Clear,0,2013-06-25 04:52:00
1:52 AM,68.0,66.0,93,29.97,9.0,Calm,Calm,-,N/A,,Clear,0,2013-06-25 05:52:00
2:52 AM,66.9,64.9,93,29.95,8.0,Calm,Calm,-,N/A,,Mostly Cloudy,0,2013-06-25 06:52:00
3:52 AM,66.0,64.9,96,29.95,6.0,Calm,Calm,-,N/A,,Mostly Cloudy,0,2013-06-25 07:52:00
4:52 AM,66.0,64.0,93,29.94,6.0,Calm,Calm,-,N/A,,Partly Cloudy,0,2013-06-25 08:52:00
5:03 AM,66.2,64.4,94,29.94,6.0,Calm,Calm,-,N/A,,Partly Cloudy,0,2013-06-25 09:03:00
5:52 AM,66.0,64.0,93,29.94,6.0,Calm,Calm,-,N/A,,Clear,0,2013-06-25 09:52:00
6:15 AM,64.4,64.4,100,29.95,1.8,Calm,Calm,-,N/A,,Clear,0,2013-06-25 10:15:00
6:22 AM,64.4,64.4,100,29.95,1.0,Calm,Calm,-,N/A,,Mist,0,2013-06-25 10:22:00
6:25 AM,64.4,64.4,100,29.95,0.8,Calm,Calm,-,N/A,,Mist,0,2013-06-25 10:25:00
6:36 AM,64.4,64.4,100,29.95,1.0,Calm,Calm,-,N/A,,Mist,0,2013-06-25 10:36:00
6:39 AM,64.4,64.4,100,29.95,2.0,Calm,Calm,-,N/A,,Scattered Clouds,0,2013-06-25 10:39:00
6:52 AM,66.9,64.9,93,29.94,6.0,Calm,Calm,-,N/A,,Partly Cloudy,0,2013-06-25 10:52:00
7:52 AM,71.1,66.0,84,29.93,9.0,Calm,Calm,-,N/A,,Clear,0,2013-06-25 11:52:00
8:52 AM,77.0,66.9,71,29.92,10.0,South,3.5,-,N/A,,Clear,180,2013-06-25 12:52:00
9:52 AM,79.0,66.9,66,29.92,10.0,Calm,Calm,-,N/A,,Clear,0,2013-06-25 13:52:00
10:52 AM,84.0,69.1,61,29.92,10.0,Variable,4.6,-,N/A,,Clear,0,2013-06-25 14:52:00
11:52 AM,86.0,66.9,53,29.91,10.0,SW,6.9,-,N/A,,Clear,220,2013-06-25 15:52:00
12:52 PM,88.0,68.0,51,29.90,10.0,SSW,9.2,-,N/A,,Clear,200,2013-06-25 16:52:00
1:52 PM,90.0,64.9,43,29.86,10.0,SSW,8.1,-,N/A,,Clear,210,2013-06-25 17:52:00
2:52 PM,90.0,64.9,43,29.84,10.0,SW,9.2,-,N/A,,Partly Cloudy,220,2013-06-25 18:52:00
3:52 PM,89.1,68.0,50,29.81,10.0,SSW,10.4,16.1,N/A,,Partly Cloudy,200,2013-06-25 19:52:00
4:52 PM,88.0,69.1,53,29.79,10.0,SSW,9.2,20.7,N/A,,Clear,210,2013-06-25 20:52:00
5:52 PM,87.1,66.9,51,29.78,10.0,South,11.5,17.3,N/A,,Clear,190,2013-06-25 21:52:00
6:26 PM,84.2,68.0,58,29.79,9.0,South,9.2,-,N/A,,Scattered Clouds,190,2013-06-25 22:26:00
6:52 PM,82.9,69.1,63,29.77,9.0,SSW,5.8,-,N/A,Thunderstorm,Thunderstorm,200,2013-06-25 22:52:00
7:52 PM,75.0,70.0,84,29.78,10.0,Calm,Calm,-,0.03,,Partly Cloudy,0,2013-06-25 23:52:00
8:52 PM,73.9,70.0,87,29.78,8.0,West,3.5,-,N/A,,Partly Cloudy,260,2013-06-26 00:52:00
9:52 PM,73.9,71.1,91,29.78,9.0,Calm,Calm,-,N/A,,Scattered Clouds,0,2013-06-26 01:52:00
10:52 PM,73.0,70.0,90,29.79,7.0,Calm,Calm,-,N/A,,Clear,0,2013-06-26 02:52:00
11:52 PM,71.1,70.0,96,29.80,5.0,Calm,Calm,-,N/A,,Clear,0,2013-06-26 03:52:00